This demonstration page uses our WeatherBlox Daily Observations layout. Learn more.

40.92945, -100.16068

Hourly Observations for November 14, 2020

Temp ( °F °C ) Dew Point ( °F °C ) Humidity (%) Winds ( mph kmh ) Pressure ( in mb ) Visibility ( mi km ) Precip ( " mm )
12:15 am 00:15 Clear 35 1.5 25 -3.8 68 68 SSE 14 22 29.72 1006 10 16.0934 0 0
12:35 am 00:35 Clear 35 1.5 25 -3.8 68 68 SSE 15 24 29.71 1006 10 16.0934 0 0
12:55 am 00:55 Clear 34 1 25 -3.8 71 71 SSE 10 17 29.72 1006 10 16.0934 0 0
1:15 am 01:15 Clear 34 1 25 -3.7 71 71 SSE 9 15 29.71 1006 10 16.0934 0 0
1:35 am 01:35 Clear 34 1 26 -3.6 72 72 S 12 19 29.7 1006 10 16.0934 0 0
1:55 am 01:55 Clear 33 0.8 26 -3.5 73 73 S 9 15 29.7 1006 10 16.0934 0 0
2:15 am 02:15 Clear 32 0.2 26 -3.5 76 76 S 12 19 29.68 1005 10 16.0934 0 0
2:35 am 02:35 Clear 32 0 26 -3.5 78 78 S 13 20 29.67 1005 10 16.0934 0 0
2:55 am 02:55 Clear 31 -0.5 26 -3.5 80 80 SSE 9 15 29.67 1005 10 16.0934 0 0
3:15 am 03:15 Clear 31 -0.8 26 -3.5 82 82 SSE 9 15 29.66 1005 10 16.0934 0 0
3:35 am 03:35 Clear 30 -1.1 26 -3.5 84 84 SSE 7 11 29.67 1005 10 16.0934 0 0
3:55 am 03:55 Clear 30 -1.2 26 -3.4 85 85 Calm 29.68 1005 10 16.0934 0 0
4:15 am 04:15 Clear 30 -1.2 26 -3.3 86 86 S 5 7 29.67 1005 10 16.0934 0 0
4:35 am 04:35 Clear 30 -1.2 26 -3.3 86 86 S 6 9 29.66 1004 10 16.0934 0 0
4:55 am 04:55 Clear 29 -1.8 26 -3.5 88 88 SSE 6 9 29.66 1005 10 16.0934 0 0
5:15 am 05:15 Clear 28 -2.2 25 -3.7 90 90 Calm 29.66 1004 10 16.0934 0 0
5:35 am 05:35 Clear 28 -2.5 25 -3.7 92 92 SSE 3 6 29.64 1004 10 16.0934 0 0
5:55 am 05:55 Clear 28 -2.2 26 -3.6 90 90 Calm 29.63 1003 10 16.0934 0 0
6:15 am 06:15 Clear 28 -2.1 26 -3.5 90 90 Calm 29.65 1004 10 16.0934 0 0
6:35 am 06:35 Clear 28 -2.1 26 -3.3 92 92 W 3 6 29.64 1004 10 16.0934 0 0
6:55 am 06:55 Clear 29 -1.8 26 -3.1 91 91 NW 5 7 29.63 1003 10 16.0934 0 0
7:15 am 07:15 Clear 29 -1.7 26 -3.1 90 90 NW 7 11 29.62 1003 10 16.0934 0 0
7:35 am 07:35 Sunny 29 -1.5 27 -3 90 90 Calm 29.62 1003 10 16.0934 0 0
7:55 am 07:55 Sunny 30 -1.1 27 -3 87 87 WSW 3 6 29.62 1003 10 16.0934 0 0
8:15 am 08:15 Sunny 30 -1 27 -2.8 88 88 WSW 3 6 29.62 1003 10 16.0934 0 0
8:35 am 08:35 Sunny 31 -0.7 27 -2.7 87 87 WSW 3 6 29.62 1003 10 16.0934 0 0
8:55 am 08:55 Sunny 32 -0.1 27 -2.8 82 82 W 5 7 29.62 1003 10 16.0934 0 0
9:15 am 09:15 Sunny 33 0.5 28 -2.5 81 81 WNW 6 9 29.6 1002 10 16.0934 0 0
9:35 am 09:35 Sunny 34 1.2 28 -2.4 77 77 W 7 11 29.59 1002 10 16.0934 0 0
9:55 am 09:55 Partly Cloudy 35 1.5 28 -2.1 77 77 W 6 9 29.58 1002 10 16.0934 0 0
10:15 am 10:15 Partly Cloudy 37 2.7 28 -2.2 70 70 W 8 13 29.58 1002 10 16.0934 0 0
10:35 am 10:35 Partly Cloudy 38 3.6 29 -1.7 69 69 W 8 13 29.56 1001 10 16.0934 0 0
10:55 am 10:55 Mostly Cloudy 41 5.1 29 -1.6 62 62 W 9 15 29.55 1001 10 16.0934 0 0
11:15 am 11:15 Cloudy 43 5.9 30 -1.3 60 60 W 10 17 29.55 1001 10 16.0934 0 0
11:35 am 11:35 Cloudy 44 6.9 31 -0.7 59 59 W 12 19 29.54 1000 10 16.0934 0 0
11:55 am 11:55 Mostly Cloudy 49 9.5 32 0.2 53 53 W 9 15 29.51 999 10 16.0934 0 0
12:15 pm 12:15 Mostly Cloudy 51 10.8 33 0.8 50 50 W 8 13 29.48 998 10 16.0934 0 0
12:35 pm 12:35 Mostly Cloudy 55 12.5 33 0.4 44 44 W 16 26 29.46 998 10 16.0934 0 0
12:55 pm 12:55 Partly Cloudy 55 12.7 32 0.2 43 43 WNW 15 24 29.46 998 10 16.0934 0 0
1:15 pm 13:15 Mostly Cloudy 56 13.5 32 0 40 40 WNW 22 35 29.46 998 10 16.0934 0 0
1:35 pm 13:35 Cloudy 57 14 32 -0.1 38 38 WNW 31 50 29.46 997 10 16.0934 0 0
1:55 pm 13:55 Partly Cloudy 57 14 32 0 39 39 WNW 28 44 29.46 997 10 16.0934 0 0
2:15 pm 14:15 Sunny 56 13.6 32 0.1 40 40 WNW 26 43 29.46 998 10 16.0934 0 0
2:35 pm 14:35 Partly Cloudy 58 14.2 31 -0.7 36 36 W 30 48 29.46 998 10 16.0934 0 0
2:55 pm 14:55 Partly Cloudy 56 13.5 25 -3.9 30 30 W 31 50 29.49 999 10 16.0934 0 0
3:15 pm 15:15 Sunny 55 12.7 25 -3.9 31 31 WNW 32 52 29.51 999 10 16.0934 0 0
3:35 pm 15:35 Sunny 55 12.6 25 -4 31 31 WNW 31 50 29.52 1000 10 16.0934 0 0
3:55 pm 15:55 Sunny 54 12 25 -4 33 33 WNW 35 56 29.54 1000 10 16.0934 0 0
4:15 pm 16:15 Sunny 49 9.7 28 -2 44 44 WNW 39 63 29.6 1002 10 16.0934 0 0
4:35 pm 16:35 Sunny 48 9 30 -1.2 49 49 WNW 33 54 29.64 1004 10 16.0934 0 0
4:55 pm 16:55 Partly Cloudy 44 6.7 32 0 63 63 NW 39 63 29.7 1006 7 11.26538 0 0
5:15 pm 17:15 Mostly Cloudy 43 5.9 30 -0.9 62 62 NW 35 56 29.72 1006 10 16.0934 0 0
5:35 pm 17:35 Partly Cloudy 42 5.3 30 -1.1 64 64 NW 25 41 29.74 1007 10 16.0934 0 0
5:55 pm 17:55 Clear 40 4.7 29 -1.5 64 64 NW 35 56 29.78 1008 10 16.0934 0 0
6:15 pm 18:15 Clear 40 4.5 29 -1.5 65 65 NW 25 41 29.81 1010 10 16.0934 0 0
6:35 pm 18:35 Clear 39 4.1 29 -1.4 68 68 WNW 28 44 29.82 1010 10 16.0934 0 0
6:55 pm 18:55 Clear 39 3.9 29 -1.5 68 68 WNW 26 43 29.84 1010 10 16.0934 0 0
7:15 pm 19:15 Clear 38 3.5 29 -1.5 70 70 WNW 20 31 29.85 1011 10 16.0934 0 0
7:35 pm 19:35 Clear 37 2.8 29 -1.4 74 74 WNW 16 26 29.87 1011 10 16.0934 0 0
7:55 pm 19:55 Clear 37 2.7 30 -1 77 77 WNW 17 28 29.87 1012 10 16.0934 0 0
8:15 pm 20:15 Clear 37 2.5 29 -1.4 76 76 WNW 17 28 29.88 1012 10 16.0934 0 0
8:35 pm 20:35 Clear 35 1.8 29 -1.6 78 78 WNW 15 24 29.89 1012 10 16.0934 0 0
8:55 pm 20:55 Clear 35 1.8 29 -1.8 77 77 WNW 15 24 29.9 1012 10 16.0934 0 0
9:15 pm 21:15 Clear 36 2 28 -2.5 72 72 WNW 12 19 29.91 1013 10 16.0934 0 0
9:35 pm 21:35 Clear 37 3 25 -3.7 62 62 WNW 22 35 29.9 1012 10 16.0934 0 0
9:55 pm 21:55 Clear 38 3.1 25 -4 60 60 WNW 20 31 29.91 1013 10 16.0934 0 0
10:15 pm 22:15 Clear 38 3.1 25 -4 60 60 WNW 21 33 29.92 1013 10 16.0934 0 0
10:35 pm 22:35 Clear 38 3.2 25 -4 60 60 WNW 23 37 29.92 1013 10 16.0934 0 0
10:55 pm 22:55 Clear 38 3.1 25 -4 60 60 WNW 23 37 29.94 1014 10 16.0934 0 0
11:15 pm 23:15 Clear 37 2.7 25 -4 62 62 WNW 22 35 29.95 1014 10 16.0934 0 0
11:35 pm 23:35 Clear 37 2.5 25 -4 63 63 WNW 24 39 29.97 1015 10 16.0934 0 0
11:55 pm 23:55 Clear 36 2.1 25 -4.1 64 64 WNW 20 31 29.99 1015 10 16.0934 0 0

Powered by AerisWeather